This is the latest recevied weather packets stored in our database for station/object KG7KID-7. If no packets are shown the sender has not sent any weather packets the latest 10 day(s).
| Time | Temp. | Humidity | Pressure | Rain* | Wind** | Luminosity | Snow |
|---|---|---|---|---|---|---|---|
| 1777488328 | 23.33° C | 16% | 979.5 hPa | 0 mm | - | - | - |
| 1777488028 | 23.33° C | 15% | 979.7 hPa | 0 mm | - | - | - |
| 1777487829 | 23.33° C | 16% | 979.7 hPa | 0 mm | - | - | - |
| 1777487728 | 23.33° C | 16% | 979.7 hPa | 0 mm | - | - | - |
| 1777487428 | 23.89° C | 16% | 979.7 hPa | 0 mm | - | - | - |
| 1777487128 | 23.33° C | 16% | 979.7 hPa | 0 mm | - | - | - |
| 1777486528 | 22.78° C | 16% | 979.8 hPa | 0 mm | - | - | - |
| 1777486234 | 23.33° C | - | - | 0 mm | - | - | - |
| 1777486229 | 23.33° C | 16% | 979.8 hPa | 0 mm | - | - | - |
| 1777485929 | 23.33° C | 17% | 979.9 hPa | 0 mm | - | - | - |
| 1777485629 | 23.33° C | 17% | 979.9 hPa | 0 mm | - | - | - |
| 1777485328 | 22.78° C | 17% | 979.9 hPa | 0 mm | - | - | - |
| 1777485027 | 22.78° C | 17% | 980 hPa | 0 mm | - | - | - |
| 1777484728 | 22.22° C | 18% | 980.1 hPa | 0 mm | - | - | - |
| 1777484428 | 21.67° C | 19% | 980.1 hPa | 0 mm | - | - | - |
| 1777484128 | 22.22° C | 19% | 980.2 hPa | 0 mm | - | - | - |
| 1777483828 | 21.67° C | 19% | 980.2 hPa | 0 mm | - | - | - |
| 1777483528 | 21.11° C | 19% | 980.2 hPa | 0 mm | - | - | - |
| 1777482628 | 20° C | 20% | 979.7 hPa | 0 mm | - | - | - |
| 1777482480 | 20.56° C | 21% | 979.6 hPa | 0 mm | - | - | - |
| 1777482328 | 20.56° C | 21% | 979.6 hPa | 0 mm | - | - | - |
| 1777482028 | 20° C | 21% | 979.7 hPa | 0 mm | - | - | - |
| 1777481728 | 19.44° C | 21% | 980.7 hPa | 0 mm | - | - | - |
| 1777481427 | 19.44° C | 21% | 980.8 hPa | 0 mm | - | - | - |
| 1777481128 | 19.44° C | 21% | 980.8 hPa | 0 mm | - | - | - |
* Rain latest hour (hover to see other rain measurements)
** Current wind speed in m/s (hover to see current wind gust speed)